This is the latest recevied weather packets stored in our database for station/object W0VI. If no packets are shown the sender has not sent any weather packets the latest 10 day(s).
| Time | Temp. | Humidity | Pressure | Rain* | Wind** | Luminosity | Snow |
|---|---|---|---|---|---|---|---|
| 1777562319 | 6.67° C | 56% | 1018.7 hPa | 0 mm | - | 264 W/m² | - |
| 1777562015 | 6.67° C | 57% | 1018.7 hPa | 0 mm | - | 791 W/m² | - |
| 1777561712 | 5.56° C | 59% | 1019 hPa | 0 mm | - | 772 W/m² | - |
| 1777561407 | 5° C | 60% | 1018.9 hPa | 0 mm | - | 420 W/m² | - |
| 1777561103 | 5° C | 60% | 1018.8 hPa | 0 mm | - | 127 W/m² | - |
| 1777560798 | 5.56° C | 58% | 1018.8 hPa | 0 mm | - | 192 W/m² | - |
| 1777560496 | 5.56° C | 57% | 1018.8 hPa | 0 mm | - | 267 W/m² | - |
| 1777560194 | 5.56° C | 57% | 1018.9 hPa | 0 mm | - | 413 W/m² | - |
| 1777559891 | 5.56° C | 57% | 1018.8 hPa | 0 mm | - | 557 W/m² | - |
| 1777559585 | 5.56° C | 58% | 1018.8 hPa | 0 mm | - | 475 W/m² | - |
| 1777559284 | 5.56° C | 59% | 1018.8 hPa | 0 mm | - | 443 W/m² | - |
| 1777558979 | 5° C | 58% | 1019 hPa | 0 mm | - | 410 W/m² | - |
| 1777558675 | 5° C | 60% | 1018.8 hPa | 0 mm | - | 387 W/m² | - |
| 1777558370 | 5° C | 61% | 1018.8 hPa | 0 mm | - | 372 W/m² | - |
| 1777558067 | 5° C | 61% | 1019 hPa | 0 mm | - | 359 W/m² | - |
| 1777557764 | 4.44° C | 61% | 1019 hPa | 0 mm | - | 351 W/m² | - |
| 1777557460 | 4.44° C | 62% | 1018.9 hPa | 0 mm | - | 339 W/m² | - |
| 1777557157 | 3.89° C | 63% | 1018.9 hPa | 0 mm | - | 291 W/m² | - |
| 1777556852 | 3.89° C | 63% | 1018.5 hPa | 0 mm | - | 295 W/m² | - |
| 1777556549 | 3.89° C | 63% | 1019.1 hPa | 0 mm | - | 288 W/m² | - |
| 1777556248 | 3.89° C | 64% | 1019 hPa | 0 mm | - | 276 W/m² | - |
| 1777555945 | 3.89° C | 65% | 1019 hPa | 0 mm | - | 255 W/m² | - |
| 1777555640 | 3.33° C | 66% | 1019 hPa | 0 mm | - | 238 W/m² | - |
| 1777555337 | 3.33° C | 67% | 1019 hPa | 0 mm | - | 232 W/m² | - |
| 1777555034 | 2.78° C | 68% | 1019 hPa | 0 mm | - | 219 W/m² | - |
* Rain latest hour (hover to see other rain measurements)
** Current wind speed in m/s (hover to see current wind gust speed)